Theta_e
319 318 320 321 321 322 321 322 319 318 317 311 312 314 314 316 316 316 316 316 316 318 316 314 314 315 319 319 321 320 320 322 320 320 321 331 333 334 338 336 336 339 341 340 341 341 340 341 339 338 337 338 340 340 339 339 339 339 339 339 339 339 338 337 337 338 338 338 337 337 337 336 331 328 327 323 320 319 316 313 307 310 318 325 329 330 331 331 331 330 331 333 333 333 332 332 332
319 320 321 321 320 324 322 321 318 314 313 310 312 315 314 315 316 317 317 317 319 319 318 316 316 318 320 319 320 320 323 325 324 326 330 331 332 336 337 336 336 339 342 340 341 341 341 340 339 339 336 336 339 339 340 340 339 339 339 339 339 339 339 338 338 339 338 337 337 337 337 335 330 328 327 322 320 318 315 311 307 314 324 328 330 330 331 330 330 330 331 333 332 332 332 332 331
320 321 321 322 321 323 322 321 316 310 310 309 311 315 315 315 316 317 317 319 319 318 318 317 317 318 318 318 319 319 323 325 325 328 330 331 334 337 336 337 338 340 341 341 341 341 342 340 339 340 336 335 338 338 338 339 339 339 339 340 339 339 339 339 338 338 338 337 337 336 337 333 329 329 326 322 321 318 316 311 309 318 326 328 330 330 330 330 329 330 332 332 331 332 332 331 329
320 321 321 324 323 322 323 321 316 311 309 308 310 315 316 316 317 316 317 319 318 315 315 317 318 317 317 319 319 319 322 324 327 330 331 332 334 336 335 336 339 341 341 341 341 341 341 339 338 339 335 334 337 338 337 337 337 337 339 339 339 338 338 338 337 337 337 337 336 336 336 333 329 329 326 323 322 319 316 310 311 321 326 328 330 330 330 330 329 331 332 331 331 332 331 329 328
319 320 321 325 325 321 322 319 317 313 311 311 311 314 316 316 316 316 317 317 316 314 314 316 319 318 319 320 319 320 322 323 326 328 331 333 333 335 335 335 339 341 341 341 341 341 340 339 338 338 335 333 336 337 336 337 336 337 338 338 338 337 337 337 337 337 337 336 336 336 336 333 330 329 327 324 323 320 315 308 312 322 326 328 330 330 330 329 330 332 332 331 332 331 329 328 327
318 319 319 322 321 319 320 316 314 313 313 315 314 315 316 315 317 317 316 316 314 313 313 315 318 318 321 322 321 323 324 324 326 328 330 333 332 334 335 334 338 341 341 341 341 342 340 338 338 338 337 335 335 335 335 336 337 337 337 337 337 336 337 337 337 337 336 336 335 336 335 332 330 329 327 325 324 320 313 306 308 319 326 327 329 329 329 329 330 331 331 330 330 329 327 326 326
320 321 321 321 319 319 319 314 313 314 314 315 315 316 315 315 317 317 317 316 314 312 311 313 316 318 320 320 321 324 324 326 328 329 330 332 333 335 336 334 338 341 341 342 342 342 341 338 337 338 338 337 335 335 334 335 337 337 336 336 336 335 336 336 336 336 336 335 335 335 334 332 331 330 328 326 324 320 313 306 305 315 324 326 328 329 328 328 328 329 329 328 328 326 325 325 326
319 321 322 322 321 321 319 315 315 316 314 312 313 314 315 315 315 317 317 316 315 313 313 314 316 316 318 317 320 324 322 325 328 329 329 331 334 336 336 336 339 341 341 342 342 342 340 338 337 338 338 337 335 335 335 333 335 337 336 336 335 334 335 336 336 335 335 334 334 335 334 333 331 330 329 327 324 320 314 308 305 313 322 324 327 328 327 327 328 328 327 326 326 325 325 326 326
317 319 320 322 320 319 317 316 316 316 315 312 312 312 313 313 312 315 316 315 313 313 316 316 314 314 318 317 319 322 319 322 326 329 329 332 334 336 337 336 339 341 341 341 342 342 340 339 338 338 338 338 336 335 336 333 334 336 337 336 334 334 335 335 334 335 334 334 334 335 335 334 332 330 329 327 324 320 316 311 306 309 316 322 326 327 326 326 326 326 325 325 325 325 325 325 325
318 318 321 322 318 316 314 314 316 316 315 313 312 311 312 312 311 313 315 314 313 313 316 313 312 313 317 318 318 319 317 319 326 330 330 333 334 336 338 337 340 341 341 340 342 341 340 340 338 338 338 338 337 336 336 334 333 335 336 336 334 333 334 334 334 334 334 334 334 335 335 334 332 330 329 327 324 320 317 314 310 307 308 315 322 325 325 325 325 324 324 324 324 324 323 323 323
319 318 321 320 314 313 312 313 316 316 314 312 313 311 311 312 311 312 313 313 312 314 315 311 314 315 316 318 317 315 314 320 329 332 331 333 335 336 339 338 339 341 341 340 341 341 340 341 339 339 338 338 337 337 336 334 333 334 335 334 333 333 333 334 333 333 333 334 334 334 335 334 332 331 330 327 324 321 320 318 315 310 305 306 313 319 321 322 323 322 322 322 321 321 321 321 320
320 320 321 318 314 314 314 315 316 316 315 313 313 312 310 311 311 313 312 313 312 314 315 313 315 316 316 317 317 314 314 323 330 331 332 333 335 336 338 339 339 340 341 340 340 341 340 340 339 339 339 338 337 338 337 334 334 333 332 331 332 332 332 333 333 333 333 334 334 335 335 334 333 331 331 328 325 323 321 321 319 316 309 304 306 310 313 315 317 317 317 317 317 316 314 313 312
320 322 321 316 316 317 316 316 316 317 315 314 314 311 309 311 313 314 313 313 313 314 315 313 314 315 316 316 315 313 315 324 328 330 332 333 334 335 337 338 338 340 341 340 340 341 339 339 339 339 339 338 338 338 337 335 334 334 331 329 331 332 332 334 334 334 333 334 335 334 335 334 333 332 331 329 326 324 322 322 321 319 314 308 305 304 305 307 308 309 310 310 309 307 305 303 302
320 321 321 317 316 318 317 316 315 315 314 314 313 309 308 311 312 312 313 314 313 314 312 311 313 315 316 315 315 314 316 324 328 330 331 333 334 334 336 337 337 339 339 339 341 341 340 339 340 340 339 339 339 338 337 336 335 334 332 327 329 332 333 334 334 333 333 334 334 334 334 334 333 332 331 329 327 325 323 322 321 319 316 311 306 303 302 302 303 303 304 303 302 300 299 299 299
317 318 321 319 316 316 316 317 316 315 314 314 312 309 310 310 309 310 312 314 314 312 310 310 311 314 315 315 316 314 319 325 329 331 331 332 333 334 335 336 337 339 338 337 339 340 340 339 340 340 339 339 339 339 337 336 335 335 333 328 329 332 334 334 334 333 333 333 333 333 334 334 333 331 330 329 327 325 323 323 321 319 316 312 308 304 301 300 300 300 300 299 299 298 298 298 298
315 318 321 319 316 316 315 316 316 315 315 314 310 309 312 310 308 310 311 311 313 310 311 312 310 313 314 314 315 313 320 328 330 331 331 332 333 335 336 336 337 337 336 335 337 339 341 340 338 339 339 339 338 339 338 337 336 335 334 330 329 332 334 334 333 333 333 333 333 333 334 333 332 330 329 328 327 325 323 323 321 319 316 313 309 305 302 300 299 299 298 298 298 299 299 299 299
314 319 319 316 315 316 316 316 316 315 315 313 309 309 314 313 308 309 309 309 313 312 311 313 311 312 312 313 313 312 322 329 329 331 331 332 333 334 336 336 335 333 334 336 336 337 340 339 337 337 338 338 338 338 339 338 336 335 335 333 329 331 333 334 333 333 332 332 333 333 334 332 330 329 328 327 326 324 323 323 322 320 317 314 311 307 304 301 300 300 301 302 304 305 305 305 303
316 319 317 314 316 316 317 318 315 316 316 313 311 311 314 314 311 310 311 311 313 312 312 313 312 312 312 313 312 313 322 327 327 331 331 332 333 334 334 334 334 332 333 335 335 336 338 339 339 338 337 337 337 338 338 338 337 336 336 335 331 330 331 332 332 333 332 332 333 333 333 331 330 329 328 327 325 323 324 324 323 321 318 315 312 309 307 305 304 306 307 309 310 311 312 310 307
317 318 315 314 318 316 315 316 314 315 316 314 312 311 312 314 313 311 313 314 313 313 314 313 313 314 313 313 313 315 322 326 326 329 331 331 332 334 333 333 334 332 331 332 333 334 335 337 338 338 338 337 337 337 337 338 338 336 336 336 333 331 330 331 332 332 332 332 332 332 332 331 330 329 328 326 324 324 324 325 324 321 319 316 313 311 309 309 309 311 312 313 313 313 313 312 310
314 315 314 315 318 315 312 313 313 312 312 313 312 310 310 312 312 312 313 315 314 314 315 314 314 314 315 315 315 317 322 324 325 328 330 330 331 332 333 333 333 332 331 330 330 332 333 334 336 336 338 337 336 336 337 338 338 336 336 337 335 333 331 331 332 332 332 332 331 332 332 331 330 329 327 326 325 324 324 324 324 322 319 316 314 312 311 312 313 313 313 313 313 313 311 311 310
314 313 314 314 313 315 312 310 311 309 310 313 312 310 311 311 310 312 314 314 314 315 315 315 315 315 316 317 317 320 322 323 324 327 328 329 330 331 333 333 333 330 331 332 332 333 333 334 334 335 336 336 335 335 336 338 338 337 336 336 336 335 333 332 332 332 332 331 331 331 331 331 330 329 327 326 325 325 323 323 321 320 317 315 314 313 313 313 313 313 313 313 312 311 310 309 308
314 312 312 311 311 315 312 308 309 308 309 311 311 312 312 311 310 312 313 314 315 315 315 315 315 315 316 317 319 320 322 323 323 325 328 329 330 331 331 331 331 329 331 333 332 333 333 333 334 333 334 334 334 333 333 335 336 337 337 336 336 336 335 333 333 332 332 332 331 331 330 330 330 329 327 327 326 325 324 323 320 318 317 315 314 314 313 313 313 313 313 311 310 308 307 306 306
314 313 310 309 310 313 310 308 308 307 310 312 312 312 311 311 312 312 311 314 315 313 312 313 313 312 313 318 320 320 321 323 323 324 327 328 329 330 330 329 329 330 331 331 331 334 333 332 332 332 332 333 334 334 332 333 334 335 337 336 336 336 335 334 334 333 332 332 332 331 330 330 330 329 328 327 326 325 324 323 321 319 318 316 315 314 314 313 313 313 312 310 308 306 304 304 305
314 314 311 309 308 310 310 308 307 307 310 311 310 311 311 313 313 310 310 313 314 311 310 311 311 309 311 317 319 320 322 323 323 324 325 327 328 329 329 328 328 330 331 330 330 331 331 330 330 330 331 332 333 334 333 334 335 336 337 337 336 336 335 335 334 333 332 332 332 331 331 330 329 329 328 327 326 325 324 323 322 320 318 318 316 315 314 313 312 312 311 309 307 304 303 303 302
315 314 311 310 309 309 308 306 307 307 309 308 308 311 312 311 311 309 311 313 313 313 311 311 311 309 311 315 317 321 322 323 323 323 324 324 325 327 327 327 328 330 329 329 329 329 329 329 329 330 330 330 331 332 333 334 335 336 337 337 336 335 335 335 335 334 332 332 332 331 331 331 330 330 329 327 326 325 323 323 321 319 318 318 316 315 314 313 312 312 310 308 306 304 302 301 300
314 313 312 311 311 310 308 308 308 308 309 308 311 313 311 309 309 312 314 314 313 312 312 311 311 311 312 314 316 320 322 323 323 323 322 320 321 323 324 325 327 328 326 327 328 328 329 330 329 329 329 328 328 329 332 333 334 335 335 337 337 334 333 334 335 334 333 332 332 331 330 330 330 330 329 328 326 324 322 321 320 318 317 317 316 315 314 313 312 311 310 307 305 303 301 299 299
311 311 312 312 312 310 309 311 309 309 310 309 312 314 311 308 310 315 316 313 311 311 312 312 311 312 313 313 315 318 320 322 322 322 320 318 319 320 321 324 325 324 324 325 326 326 327 328 328 328 327 326 325 326 328 331 332 333 334 335 337 335 333 332 333 335 334 333 332 330 330 329 329 330 329 328 326 324 322 321 320 318 316 316 316 316 314 314 313 311 308 305 302 301 299 297 297
310 311 313 313 312 311 309 312 311 310 312 309 311 313 311 310 311 316 316 310 309 312 312 313 312 313 313 313 314 316 318 318 320 320 320 320 319 319 320 321 322 322 322 324 324 324 324 325 325 325 325 325 324 324 325 328 331 331 333 333 334 334 333 331 331 333 333 333 331 330 330 330 330 330 330 329 327 325 322 321 320 318 316 315 316 316 314 314 314 311 307 303 300 300 299 296 294
310 311 315 315 314 314 311 311 310 311 313 309 311 313 313 313 313 315 314 309 310 312 313 313 313 313 313 313 313 315 316 316 316 317 320 321 320 320 319 319 320 320 320 320 321 321 322 321 320 321 322 323 324 325 324 327 329 329 331 331 331 332 333 332 330 330 332 333 332 331 330 331 331 331 330 329 327 325 322 321 320 318 317 316 316 316 314 314 312 309 305 302 299 299 298 295 293
312 312 315 316 316 315 312 310 309 311 312 309 311 313 315 317 315 316 313 309 311 312 314 313 313 313 313 313 312 313 315 315 315 316 318 320 320 319 319 319 318 318 317 317 317 317 317 316 316 315 316 317 320 323 325 326 327 328 329 329 329 330 331 332 330 329 331 332 332 331 331 330 330 330 330 329 328 325 322 321 319 318 317 317 316 316 315 313 311 308 304 301 298 297 295 292 291
314 313 314 316 314 314 313 310 310 313 311 308 312 313 315 318 316 315 309 307 310 312 314 314 314 313 312 313 313 313 315 315 315 315 316 317 317 318 318 318 317 317 316 315 316 315 314 314 313 312 312 314 315 318 322 324 325 326 326 326 328 329 330 330 330 332 332 332 331 331 332 330 330 330 329 329 328 326 322 320 319 318 318 317 316 315 314 312 308 306 303 301 297 294 292 291 290
314 312 314 316 313 314 315 310 310 313 310 308 313 314 316 318 316 313 307 307 309 311 313 314 313 313 312 313 312 313 314 314 314 314 314 314 314 315 316 316 316 316 315 315 315 314 314 313 312 312 313 315 316 317 319 322 324 325 324 324 326 330 330 329 330 332 333 332 332 332 333 331 331 330 329 329 328 326 323 320 319 319 318 318 315 313 312 311 308 305 303 301 297 293 291 290 290
315 313 314 316 314 315 315 310 308 310 311 311 312 314 316 317 315 312 307 307 309 310 313 313 313 312 312 312 312 312 313 313 314 313 313 312 312 313 314 315 315 315 315 314 314 313 313 312 312 314 315 316 316 317 318 321 324 325 324 325 326 328 327 328 329 330 330 330 332 333 332 330 330 330 329 329 328 326 323 321 319 319 319 318 316 313 312 311 308 305 302 299 297 293 291 290 290
315 315 315 315 314 313 313 313 309 308 311 313 313 313 315 316 315 314 311 310 310 311 313 313 314 313 312 312 311 312 312 312 313 314 313 311 311 312 313 314 314 314 314 313 313 312 312 312 313 315 316 316 316 317 319 322 325 325 325 324 325 325 326 327 328 328 329 329 331 332 330 329 330 329 329 329 328 326 323 322 320 319 319 318 316 314 312 310 307 306 302 298 295 293 291 290 290
314 315 315 314 313 313 313 314 311 309 311 313 314 314 314 315 316 315 315 312 311 312 313 313 313 313 313 312 311 312 312 312 313 314 313 311 311 311 312 313 313 313 312 312 311 311 312 313 314 315 316 315 316 317 319 322 324 325 324 323 323 324 324 325 327 328 329 330 330 330 329 329 329 328 328 329 328 325 323 322 321 319 319 318 315 313 311 309 306 305 302 297 294 293 292 291 290
314 316 315 313 313 313 314 314 310 309 312 313 314 315 315 316 316 316 315 314 312 312 312 313 313 313 312 312 312 312 312 312 313 313 312 311 310 310 311 311 312 312 312 311 311 311 312 313 313 314 315 316 316 317 319 321 322 323 323 322 322 322 323 325 327 328 328 328 328 327 328 328 327 327 327 327 326 325 323 322 321 319 318 317 315 313 311 308 306 304 301 297 295 293 292 291 291
315 317 315 315 315 313 315 315 309 308 312 315 315 315 315 315 316 316 315 314 313 313 312 313 313 313 313 313 313 313 313 313 313 311 311 310 309 309 310 311 311 312 311 311 311 311 312 313 313 314 315 315 316 317 317 320 321 321 320 320 321 321 322 324 325 326 327 327 326 327 328 326 325 325 325 325 324 324 322 321 321 319 317 316 315 314 311 308 305 304 300 296 295 293 291 291 291
314 315 315 316 316 315 315 314 310 308 312 315 315 315 315 315 315 315 315 315 314 314 314 314 315 315 315 314 314 314 314 314 312 310 310 310 309 309 309 310 311 312 312 311 311 311 311 312 312 313 315 316 316 317 317 319 320 321 320 320 321 321 322 323 323 324 325 325 325 326 327 325 324 324 324 323 323 322 321 320 320 318 315 314 314 312 310 307 305 303 299 295 294 293 292 292 292
314 315 315 316 316 315 314 313 311 309 311 315 315 314 315 315 316 315 315 315 315 316 315 316 316 316 316 315 315 315 314 314 312 310 310 309 309 309 309 310 311 312 312 311 311 311 311 312 312 313 315 316 316 317 317 318 319 320 320 320 320 321 321 322 323 323 323 324 324 324 324 323 323 323 323 322 322 321 320 318 319 318 316 315 314 311 308 306 304 302 299 297 295 293 292 293 294
315 316 315 316 317 316 313 313 312 310 311 313 314 314 316 316 316 316 316 316 316 316 315 315 316 315 316 316 317 316 315 314 312 311 310 309 309 308 309 310 311 312 312 311 311 311 311 312 312 312 315 316 316 317 317 317 318 319 319 319 320 320 321 321 321 321 321 322 322 323 323 322 322 322 322 321 321 321 320 319 318 318 316 315 315 313 308 306 304 301 299 299 297 294 292 293 295
316 317 316 316 317 316 314 314 313 312 312 312 314 315 316 319 319 319 318 316 315 315 314 315 315 315 315 315 316 315 314 313 313 312 310 309 309 309 309 310 311 312 312 311 311 311 311 311 311 312 314 316 316 316 317 317 317 317 317 316 316 316 316 317 317 317 318 320 321 321 322 322 322 322 321 320 321 321 320 319 318 317 316 315 315 313 309 306 305 303 301 300 299 297 295 294 295
317 317 316 315 316 316 315 315 314 316 316 314 315 316 316 318 319 319 319 317 316 316 316 315 316 316 315 314 314 314 313 313 312 312 311 310 309 309 309 310 310 312 312 311 311 310 311 311 310 311 313 315 315 316 316 317 317 316 316 314 312 312 312 312 315 317 318 318 320 321 321 321 321 320 320 320 320 320 320 319 318 318 317 316 315 312 309 307 305 303 302 301 300 299 298 296 296
316 317 316 315 315 316 316 316 316 317 317 315 315 317 318 317 317 318 319 318 318 319 319 318 318 317 316 316 315 314 313 312 312 311 310 310 309 309 309 309 310 312 311 311 310 310 310 311 310 310 312 314 315 315 316 317 316 316 316 316 315 315 314 313 314 317 319 319 319 320 320 320 320 319 319 319 319 320 320 319 319 318 318 317 315 312 310 308 306 304 302 301 300 300 299 298 297
317 318 316 314 314 316 316 316 317 317 318 317 316 319 320 318 318 318 319 318 318 318 319 319 320 320 318 317 316 315 314 313 311 310 309 309 310 309 309 310 310 311 311 310 310 310 310 310 310 310 311 312 314 315 315 315 316 316 316 316 316 317 317 316 315 316 318 319 319 319 319 319 318 317 318 318 318 319 319 320 318 317 317 316 314 311 310 309 306 304 301 301 301 300 299 299 298
318 315 313 313 315 316 316 317 317 317 318 319 319 319 318 318 319 317 317 318 319 319 319 319 320 321 320 317 316 315 313 312 310 310 309 309 309 309 309 309 310 311 311 310 309 309 309 309 310 310 310 311 313 314 314 315 315 316 315 315 314 313 313 314 315 316 317 316 317 318 318 318 317 317 317 317 317 317 318 318 316 314 314 313 311 310 309 307 305 303 302 301 301 300 299 299 299
315 311 312 314 315 315 316 318 318 318 320 322 321 318 316 316 318 317 317 318 319 319 319 319 321 322 320 318 317 315 312 310 309 308 309 309 308 308 308 308 310 310 310 309 309 309 309 309 310 311 310 311 313 313 314 314 313 314 314 314 312 310 311 313 312 313 313 312 313 315 316 316 316 314 313 314 315 315 314 312 311 310 309 308 308 307 306 305 303 303 302 301 301 300 299 299 299
312 314 317 317 316 316 317 317 318 320 321 321 321 319 316 316 318 319 319 318 319 320 319 319 321 320 319 318 316 314 311 309 308 307 307 308 307 307 307 308 309 310 309 309 308 308 309 309 309 310 309 310 312 312 312 312 311 312 313 313 311 311 313 314 312 310 310 309 310 313 314 314 313 310 309 311 313 312 308 307 307 305 304 304 304 304 304 304 303 302 301 301 301 300 299 299 298
314 319 320 319 318 317 318 319 319 320 320 319 318 318 319 319 318 318 319 318 317 318 319 320 322 322 323 322 317 313 310 308 307 306 306 306 306 306 306 307 308 309 309 308 308 308 309 308 308 308 307 308 311 311 311 311 310 310 311 311 311 313 315 316 315 313 312 311 311 313 313 312 310 306 305 307 311 311 307 305 304 302 301 302 302 303 303 303 302 302 301 301 301 300 298 297 296
315 319 319 319 317 317 319 320 320 320 319 316 313 315 319 320 318 318 318 317 316 317 317 319 321 323 324 323 318 314 311 308 307 307 307 306 306 306 306 307 308 309 309 308 308 308 308 308 308 307 306 307 309 310 310 310 310 309 310 309 311 313 315 315 317 317 316 315 314 315 313 312 308 304 303 306 311 312 307 302 300 299 300 301 301 302 302 302 302 302 301 301 301 299 296 294 294
316 319 319 318 317 319 320 319 317 317 318 313 311 315 319 318 317 318 317 317 317 317 316 317 318 319 320 319 317 314 312 310 308 308 307 306 307 307 306 307 308 309 309 308 308 308 308 308 308 307 306 305 307 308 308 309 309 308 309 309 310 313 313 313 315 316 317 316 316 316 315 314 311 308 308 310 313 311 302 298 299 299 300 301 301 302 302 302 302 301 301 301 299 296 293 292 292
316 319 319 318 318 318 318 317 316 316 317 314 311 315 319 318 317 318 317 317 317 317 317 317 316 316 316 315 313 312 311 309 310 309 307 307 307 307 307 307 308 309 309 308 308 308 308 308 307 307 306 304 305 306 305 307 307 307 308 309 310 312 313 313 312 313 315 316 315 315 315 314 312 312 312 312 313 309 299 296 298 298 300 301 301 301 302 302 301 300 300 298 295 292 291 291 290
316 317 318 319 318 315 313 315 316 315 317 317 314 316 318 317 317 317 315 315 316 316 316 316 315 315 315 314 314 313 311 309 310 309 307 306 307 306 306 307 308 309 309 308 308 307 307 308 307 307 306 304 304 304 304 304 305 306 307 308 308 311 311 311 310 310 312 315 314 314 315 313 312 312 312 312 312 307 298 294 295 297 299 299 300 301 301 300 299 297 295 293 290 290 289 289 289
316 316 318 317 316 315 315 315 314 314 317 318 317 318 317 316 317 317 316 316 315 315 314 314 314 315 315 315 316 316 315 312 310 308 306 306 306 306 306 307 308 309 309 308 308 307 307 307 307 307 307 304 303 303 302 302 304 305 305 306 308 308 308 309 310 310 311 312 313 313 313 312 311 312 311 311 310 304 297 293 293 295 296 297 298 298 297 295 293 292 291 290 289 289 289 288 288
315 317 318 316 315 316 316 317 318 318 320 320 318 318 317 317 318 317 317 317 316 315 315 315 315 316 315 315 316 316 317 314 309 306 306 305 306 305 305 306 307 308 309 308 308 307 307 307 306 306 306 304 303 302 301 301 303 304 303 305 306 307 307 308 310 311 311 311 312 311 312 311 311 311 310 309 307 301 294 292 292 292 293 293 293 293 292 291 290 289 289 289 289 289 288 288 288
314 316 317 316 318 319 317 318 320 320 321 320 318 317 316 318 318 317 318 320 319 317 317 316 315 315 316 315 315 315 316 314 309 306 305 304 305 305 304 305 306 307 308 308 307 307 306 306 306 306 306 305 303 302 301 301 302 302 302 304 306 306 307 308 309 310 309 310 312 312 311 310 310 309 307 307 305 297 292 291 291 291 291 290 290 290 290 289 289 289 289 289 289 288 288 288 287
312 313 315 315 317 319 319 318 318 319 319 319 319 318 317 318 319 317 318 320 319 318 320 320 317 316 317 316 317 318 319 317 310 306 304 303 304 304 304 305 305 307 308 307 307 307 306 306 306 306 305 304 303 302 301 301 301 302 303 304 305 306 306 306 307 308 307 308 311 311 310 309 309 308 305 304 301 295 291 291 290 290 290 289 289 289 289 289 289 289 289 288 288 288 288 287 286
315 315 317 316 315 316 317 317 316 317 319 319 320 321 318 318 320 318 317 318 318 318 321 322 321 320 318 317 319 323 324 319 310 305 304 303 304 303 303 304 305 306 307 307 307 306 306 305 305 304 304 303 302 302 301 301 302 302 303 304 304 305 304 304 305 305 305 307 309 309 308 308 307 306 303 299 296 292 290 290 289 289 289 289 289 289 289 289 288 288 288 288 288 287 287 286 286
318 317 318 318 317 316 318 319 316 316 319 318 319 321 318 319 320 318 317 318 318 319 320 321 324 322 320 320 321 322 320 316 309 305 303 303 303 303 302 303 304 305 306 306 306 306 305 305 304 303 302 302 301 301 300 301 302 303 303 303 304 304 303 302 303 303 303 304 307 306 306 305 304 303 300 295 292 291 290 289 289 288 289 289 289 289 288 288 288 288 288 287 287 287 286 286 285
Wind_Speed
5 2 0 1 3 3 1 2 0 2 1 1 1 0 3 1 2 2 4 3 2 2 1 1 3 4 2 2 3 3 3 2 3 2 1 4 2 7 10 7 7 8 10 10 9 11 11 11 12 11 9 8 10 11 12 12 12 12 12 13 13 13 14 14 14 14 14 14 14 15 16 16 17 18 18 17 18 18 19 19 19 19 20 21 21 21 20 20 19 19 19 18 17 18 19 19 19
4 1 2 3 2 3 1 1 1 2 1 2 2 1 3 2 2 4 4 2 2 4 3 3 4 3 2 3 2 1 1 2 4 2 3 4 4 6 7 7 8 8 9 9 10 11 10 10 10 10 8 9 10 10 10 10 11 11 11 12 12 13 13 14 13 14 14 14 14 14 15 16 17 17 17 17 18 18 18 19 19 19 20 21 20 20 20 20 20 20 19 18 17 18 19 19 19
2 2 3 3 2 0 1 1 1 1 0 2 2 2 3 4 4 4 4 4 6 6 5 5 4 2 1 2 2 2 1 2 1 2 3 4 5 6 5 5 8 8 9 8 10 11 11 11 10 10 9 10 11 10 10 10 10 10 11 11 11 12 12 13 13 13 13 13 14 14 15 15 16 16 16 17 18 18 18 18 19 19 20 20 20 20 21 21 21 20 19 17 16 18 19 19 19
1 2 4 2 1 1 1 0 1 0 1 1 1 4 4 4 5 5 6 7 7 4 4 4 3 2 3 3 1 1 1 2 2 1 3 4 3 6 6 5 8 8 9 9 9 11 11 12 11 10 9 10 10 10 11 11 11 11 12 11 11 12 12 12 12 12 12 12 13 14 14 15 15 15 16 17 18 18 18 18 18 19 19 20 21 21 21 21 21 20 19 18 17 18 19 19 19
3 2 2 3 2 1 0 1 1 1 2 1 1 5 6 4 6 7 7 6 4 2 2 1 1 2 2 1 1 1 2 3 3 1 2 3 4 7 7 6 8 9 11 10 10 11 11 12 12 11 10 10 10 10 10 12 12 12 12 12 12 12 12 12 12 12 12 12 13 13 13 14 14 15 16 17 17 18 17 17 18 19 20 20 21 21 21 21 20 19 18 18 18 18 19 19 18
5 6 5 3 1 1 1 1 1 1 3 1 1 5 6 5 7 9 8 5 3 1 0 2 1 1 2 1 1 2 2 1 3 3 2 3 5 6 8 9 9 10 12 11 10 10 11 12 11 11 11 10 10 10 10 11 13 13 12 12 12 12 12 12 12 12 12 12 12 12 13 13 13 14 15 16 17 17 16 16 17 19 20 20 21 21 21 20 19 18 18 17 17 18 18 18 18
1 2 4 5 3 1 1 1 1 2 2 2 3 4 6 6 6 9 9 6 3 2 2 2 1 2 1 2 2 1 1 1 1 3 4 4 6 6 8 10 9 11 12 11 10 10 12 13 11 11 11 10 9 9 9 11 13 13 12 12 12 13 13 12 12 12 11 11 11 12 12 12 13 14 15 15 16 16 16 16 17 18 19 20 21 21 21 20 19 18 17 17 17 18 18 18 18
1 1 1 0 2 1 0 1 1 1 2 1 2 1 4 6 6 8 9 5 3 2 3 3 3 3 2 1 1 3 1 2 2 4 6 6 7 6 7 9 10 12 12 11 10 10 12 12 12 11 11 10 8 9 9 11 14 14 12 11 13 13 13 12 12 12 11 11 11 11 11 12 13 13 14 15 15 15 15 15 16 18 19 20 21 21 20 19 19 18 17 17 17 18 18 18 18
4 2 1 1 2 1 1 1 1 1 1 1 1 1 1 3 4 5 8 4 1 2 3 4 4 3 3 4 0 3 3 3 4 5 7 7 7 7 7 9 11 12 12 12 11 11 14 13 12 12 11 10 9 9 9 10 13 14 12 11 13 14 13 13 12 11 11 10 10 11 12 12 12 13 14 14 14 15 15 15 15 17 18 19 20 21 20 19 18 17 17 17 17 17 17 17 17
2 2 1 1 2 2 2 1 1 1 1 1 1 2 3 4 4 4 6 4 2 3 3 3 2 2 2 4 1 2 4 5 6 5 7 7 7 7 8 10 10 11 11 12 11 12 14 15 14 13 12 12 10 9 9 9 12 14 13 12 12 14 14 13 12 11 10 10 10 11 12 12 12 13 14 14 14 14 15 15 15 16 17 18 19 20 19 19 19 17 17 17 17 16 16 16 15
1 2 0 2 2 2 2 2 2 1 2 1 2 3 3 5 5 4 3 2 3 2 4 3 3 3 2 2 1 2 4 7 6 5 7 8 6 6 8 10 10 10 11 12 12 12 14 15 14 13 13 13 12 10 9 9 11 13 13 12 12 13 14 13 12 11 10 10 10 11 12 12 12 13 13 13 13 14 15 15 15 15 16 17 18 18 18 18 18 17 17 16 15 15 15 15 14
1 2 1 3 2 1 1 2 3 2 2 2 5 5 3 6 6 5 5 3 4 3 5 6 2 2 4 2 1 3 5 7 6 6 8 8 5 6 8 10 10 10 10 11 12 12 13 13 13 14 14 14 13 11 10 9 10 11 11 11 12 13 13 13 12 11 11 10 10 11 11 12 12 12 13 12 13 13 14 14 14 14 15 15 16 16 16 17 17 16 15 15 15 15 15 15 14
0 2 3 3 0 0 1 1 2 1 3 4 4 5 4 7 6 5 5 3 4 5 4 5 2 1 3 0 2 3 5 8 9 8 9 8 5 7 7 9 11 11 10 10 10 11 14 13 12 13 14 14 13 12 11 10 10 9 9 10 12 13 13 12 11 11 11 10 10 10 11 12 12 11 12 12 12 12 13 13 13 13 13 14 14 14 15 16 15 15 15 15 16 16 16 17 16
0 1 1 2 1 0 2 1 3 3 4 5 4 5 5 5 3 2 4 6 6 3 1 2 2 2 3 1 3 3 7 11 12 10 10 7 6 8 8 9 12 12 11 10 10 10 13 14 12 12 13 14 12 11 11 11 11 9 8 9 11 13 12 12 11 11 10 10 10 10 11 11 11 11 11 11 11 11 12 12 12 12 13 13 13 14 14 15 15 15 16 16 17 18 18 18 18
0 1 1 2 2 1 2 0 2 4 3 7 5 5 6 1 0 2 4 5 3 3 2 2 2 2 1 2 2 3 8 14 13 11 10 7 8 9 10 12 12 12 12 11 12 10 11 14 13 11 12 14 12 11 11 11 11 10 8 8 10 12 11 11 11 11 10 10 10 10 11 11 11 11 11 10 10 10 11 12 12 12 13 13 13 14 14 14 15 15 16 16 17 18 18 19 19
1 1 1 2 2 2 3 1 2 3 2 7 4 4 7 2 1 3 1 2 1 3 1 3 3 2 2 1 2 5 9 15 14 12 10 9 9 10 12 12 11 12 11 10 14 13 11 13 13 11 11 14 13 12 11 10 11 11 10 8 10 12 11 11 11 10 10 11 10 11 11 12 12 12 10 9 9 9 10 11 12 12 12 13 14 14 15 15 16 16 17 17 18 18 19 19 19
1 1 2 2 2 3 4 5 4 2 2 6 5 6 8 5 2 2 1 2 1 3 3 2 2 2 2 2 3 4 11 15 15 13 11 10 9 9 12 13 13 14 12 11 15 16 13 12 13 11 11 13 13 13 11 10 12 12 11 10 10 12 11 11 10 11 11 11 11 12 12 13 13 12 10 9 9 10 10 10 11 11 12 13 14 15 15 16 17 18 18 19 19 20 20 20 20
2 2 3 3 3 3 4 7 5 1 2 7 8 8 8 6 5 3 3 4 2 2 4 3 3 5 3 1 3 7 12 14 14 13 12 13 11 11 10 11 13 12 11 12 15 18 16 13 13 12 13 13 12 13 12 11 13 12 11 11 12 13 12 11 11 11 11 12 13 12 12 13 13 12 11 10 11 11 10 9 10 11 11 13 14 15 16 17 18 19 20 20 20 20 21 21 20
1 1 2 3 2 1 1 5 5 1 1 7 7 4 4 4 5 5 5 5 5 6 6 5 6 8 7 5 5 9 12 12 13 14 15 15 15 15 12 10 13 13 11 11 13 17 17 16 14 14 16 14 12 13 14 11 12 14 13 12 13 14 13 12 12 12 12 13 12 11 11 12 11 12 12 11 12 12 10 8 8 9 11 12 14 16 17 18 19 20 20 20 20 19 20 20 19
0 1 4 2 1 1 0 3 4 1 1 5 7 3 2 2 3 5 5 4 5 9 8 6 9 11 10 9 9 11 13 13 15 16 16 16 15 17 15 13 15 15 14 13 13 15 16 17 17 15 15 15 12 12 15 14 12 14 15 14 14 15 15 14 13 13 12 12 12 11 11 11 12 12 13 13 12 11 10 9 9 9 11 12 14 17 18 19 19 19 19 18 18 19 20 20 19
1 1 2 2 0 1 2 2 3 2 2 2 6 4 4 2 2 4 4 5 7 10 11 9 11 10 9 11 11 13 14 15 16 16 17 17 16 16 16 16 16 15 17 18 16 15 15 17 17 17 16 16 15 12 15 17 14 14 16 17 15 15 17 15 15 14 13 12 12 12 12 12 13 12 14 15 13 12 13 12 13 13 13 14 16 19 20 19 19 18 18 18 18 19 19 19 19
1 0 2 3 1 1 2 0 2 1 1 2 6 5 4 4 3 5 6 9 6 3 6 8 9 4 6 11 13 13 14 15 17 17 18 19 18 17 16 16 17 18 20 20 18 18 18 17 16 16 16 15 16 13 15 18 17 16 17 18 17 16 17 15 16 15 13 13 12 12 12 13 14 14 15 16 14 13 14 14 15 16 16 16 18 19 20 20 19 19 18 19 19 19 19 19 20
0 1 1 1 1 2 2 1 2 2 2 5 5 3 4 4 5 3 8 13 4 4 2 1 2 1 3 10 14 13 14 16 18 20 20 20 20 20 17 17 20 21 23 21 21 22 20 19 17 16 15 14 14 13 15 17 19 20 19 21 20 17 17 15 16 15 13 13 13 13 12 12 14 15 16 16 15 15 15 16 16 17 18 17 18 19 20 20 20 19 18 20 20 20 21 21 22
1 3 3 2 0 2 1 0 2 3 3 3 2 2 4 6 5 1 7 15 8 1 3 1 1 1 3 8 13 13 14 16 18 19 18 18 19 19 17 17 20 22 23 23 23 23 22 21 18 18 17 16 15 14 15 15 19 23 22 24 23 19 17 16 15 15 14 13 13 13 12 13 14 15 16 17 17 16 17 18 17 18 19 18 18 19 20 20 20 19 19 20 20 21 22 23 24
1 3 4 2 1 0 1 0 3 2 2 1 1 4 3 2 1 3 10 12 9 5 3 2 1 3 5 8 11 12 13 15 15 16 15 15 16 17 18 19 22 23 23 22 23 22 22 22 20 19 18 18 18 16 16 15 17 20 21 24 23 19 19 17 15 16 15 13 14 14 13 14 14 15 18 19 19 19 20 20 19 20 19 19 19 19 19 20 20 19 20 20 21 21 23 24 26
2 3 3 3 2 1 2 2 2 2 1 2 4 3 2 0 1 8 12 7 2 2 3 3 3 5 6 7 10 11 12 14 15 14 14 14 17 18 20 23 25 24 21 21 24 23 23 24 23 23 22 21 22 20 19 18 18 16 16 22 24 22 21 19 18 17 17 15 15 15 15 15 14 14 18 20 21 22 22 22 22 22 21 20 20 19 19 19 20 19 19 20 21 23 24 25 26
2 2 2 2 1 2 1 1 2 1 1 2 5 2 2 1 2 8 5 1 1 2 5 4 4 7 7 6 8 10 11 12 13 13 12 13 18 19 18 23 25 23 22 23 25 24 25 26 26 26 26 25 25 24 22 21 21 18 15 18 23 23 22 21 21 19 20 19 17 18 16 17 16 15 18 21 22 23 24 24 23 23 22 21 20 20 20 19 19 19 20 22 23 24 25 26 27
1 1 3 2 1 3 2 1 2 1 1 2 3 2 2 3 5 10 2 3 0 3 6 5 5 6 6 7 7 7 9 10 11 12 14 16 18 19 18 22 24 22 24 26 24 24 25 25 26 27 27 27 26 25 25 22 18 19 20 19 19 22 23 23 24 22 22 20 20 20 18 18 19 18 20 21 21 23 25 26 25 23 23 23 21 21 20 19 19 20 21 23 24 25 26 27 28
1 1 2 1 2 2 2 2 1 2 1 2 1 5 7 8 13 11 3 2 1 3 7 6 6 6 5 7 6 6 9 9 11 13 17 18 17 19 19 20 24 22 21 23 23 24 24 23 24 24 25 27 26 26 26 21 15 18 24 24 20 20 22 22 22 23 24 23 21 21 20 20 21 20 20 21 21 23 27 27 26 24 24 23 21 20 21 19 20 21 22 23 24 25 26 28 28
1 0 1 1 3 2 1 2 1 2 1 1 2 6 6 10 16 8 5 1 1 5 9 6 6 6 5 6 5 7 9 11 13 15 16 15 14 18 20 20 25 22 19 21 22 22 22 22 23 22 23 24 26 29 27 19 16 18 24 26 23 21 21 21 21 24 27 27 24 24 25 22 20 19 20 21 21 24 27 27 27 27 26 24 22 21 21 21 22 22 23 24 25 26 27 27 27
1 0 1 1 3 1 3 2 2 4 1 1 3 7 6 5 8 2 4 1 4 9 10 6 6 5 5 6 6 8 9 12 14 14 15 14 15 19 21 20 24 23 19 21 21 20 20 21 21 20 20 19 21 26 25 20 20 21 23 25 24 23 24 25 26 29 30 29 27 27 27 24 20 19 20 22 22 25 29 29 30 29 27 26 25 24 23 24 24 24 24 25 27 27 28 27 26
2 2 2 1 2 1 2 2 1 1 2 1 5 6 7 5 3 3 3 1 4 9 10 6 7 6 6 6 7 8 8 10 13 14 14 16 18 21 22 21 23 24 22 21 21 21 20 19 19 16 15 14 15 19 22 23 24 24 23 23 23 23 24 25 28 31 32 32 30 30 28 25 22 21 22 24 24 27 30 31 31 29 27 26 27 28 26 26 26 26 25 25 27 28 28 27 26
1 2 2 1 2 2 1 2 1 1 1 4 7 6 5 4 1 3 2 1 3 7 9 8 8 7 7 7 7 8 8 8 11 15 16 17 21 23 24 23 24 25 24 23 22 21 20 18 16 14 13 13 15 19 22 23 24 24 23 22 22 22 24 26 28 30 31 31 31 31 28 24 23 23 24 25 25 27 29 30 30 29 28 27 27 28 27 27 27 27 27 26 27 29 28 27 27
2 1 2 1 2 2 3 1 3 0 1 5 8 8 11 9 4 2 3 3 3 7 10 10 9 7 7 7 7 8 9 9 11 15 19 21 23 25 26 25 24 24 24 23 22 21 19 17 14 13 13 13 16 20 21 22 23 24 24 23 21 22 23 26 26 27 27 27 28 28 25 23 23 23 24 25 25 27 28 29 30 30 30 29 29 28 26 27 28 27 27 27 27 28 28 27 27
3 3 2 1 2 4 5 3 2 2 2 5 8 9 15 16 12 10 5 5 7 11 11 11 10 9 8 7 9 9 9 11 11 13 17 22 25 26 26 25 23 23 22 21 21 19 16 14 13 15 15 15 17 19 21 22 22 24 23 22 20 20 22 23 23 23 23 23 23 24 24 23 22 21 22 23 24 26 28 29 30 31 31 31 31 30 28 29 28 27 28 29 29 28 28 28 27
3 2 1 1 3 5 6 2 2 1 3 7 11 12 15 17 15 14 9 5 8 13 12 11 11 10 9 9 10 10 11 12 10 9 13 20 25 26 27 27 24 22 20 19 18 17 16 15 15 16 17 16 19 20 21 23 23 23 22 22 22 22 22 22 21 20 20 21 21 22 22 22 21 20 22 23 23 26 28 29 30 31 31 32 32 31 31 30 29 28 28 30 30 29 28 28 27
3 3 1 2 3 7 5 1 3 1 4 9 11 12 15 17 15 15 13 8 9 13 13 13 12 10 9 11 12 12 13 9 5 8 12 16 22 25 27 26 24 20 19 18 18 18 18 18 17 18 19 19 20 22 23 25 26 24 23 24 25 24 22 21 20 21 21 22 23 22 22 21 21 22 24 26 26 27 28 29 30 32 33 33 33 32 31 30 30 29 29 30 30 31 30 27 26
2 2 2 2 4 8 6 0 1 2 3 8 8 11 14 15 15 14 13 13 14 16 16 16 15 12 10 12 15 14 10 6 5 7 11 14 18 23 24 24 23 21 20 19 19 19 19 19 18 19 22 21 22 24 24 26 27 26 26 27 26 23 22 22 22 23 24 24 24 23 23 23 21 23 26 27 27 28 29 29 30 32 34 33 32 32 31 31 31 30 31 31 30 30 29 28 25
2 2 2 3 3 5 7 1 1 2 4 6 6 9 13 14 16 16 16 16 17 16 16 16 14 13 12 13 14 12 9 7 8 9 11 13 16 19 20 21 22 22 21 20 20 20 20 19 18 20 24 24 24 25 25 27 28 28 28 27 25 23 23 24 24 25 24 24 23 23 24 23 21 23 26 27 27 27 28 28 29 31 34 34 33 33 33 32 31 31 32 33 31 29 27 28 24
4 3 3 4 1 2 5 1 2 3 3 4 7 9 11 13 15 17 18 17 16 16 15 14 13 14 17 16 11 9 10 10 9 9 11 13 15 17 19 20 22 22 20 20 21 21 22 22 19 21 26 26 26 27 28 28 28 28 27 26 25 25 25 25 25 25 25 24 23 24 25 24 23 23 25 26 26 25 26 27 29 32 35 34 33 33 34 33 32 32 32 32 32 30 26 25 20
5 6 6 5 4 5 6 3 4 4 2 2 7 9 8 8 10 11 9 8 12 13 11 13 14 15 17 15 12 10 11 10 9 10 10 13 15 18 20 20 20 21 20 21 22 22 23 23 20 21 26 28 28 29 29 28 28 27 26 25 25 24 23 24 25 25 26 25 25 26 26 25 24 24 24 24 24 24 25 26 28 32 35 33 32 33 34 34 33 33 31 30 32 29 27 24 18
4 6 9 10 9 7 5 2 5 5 2 1 4 7 4 3 5 7 3 4 9 7 6 11 13 12 12 12 12 11 10 10 10 10 9 12 15 16 17 19 20 21 21 20 21 21 22 23 21 22 26 28 29 31 31 30 28 28 28 28 27 24 23 24 26 27 27 26 26 26 26 25 24 24 23 23 24 24 24 26 28 31 33 33 33 34 35 34 33 32 31 30 29 27 28 26 18
2 2 6 10 8 5 5 2 2 4 3 0 1 6 6 4 8 10 6 9 14 8 7 12 12 9 8 8 9 8 8 8 9 9 9 11 14 15 17 20 22 22 21 19 19 19 22 23 22 23 27 29 30 32 32 31 30 30 31 30 28 27 27 27 28 29 29 28 28 27 26 26 25 24 23 23 25 24 24 26 29 31 32 32 34 34 34 33 33 32 30 30 27 24 26 26 21
1 1 2 4 5 5 5 3 4 4 4 2 3 2 8 8 6 7 8 11 15 13 12 13 13 10 7 7 9 8 7 7 6 8 9 10 14 16 18 20 22 21 20 19 19 20 23 24 23 24 27 30 30 32 33 32 32 31 29 28 28 29 30 30 29 28 29 29 30 29 28 28 26 25 24 23 25 25 26 28 30 31 31 31 33 33 32 32 33 32 30 29 26 22 23 24 22
1 2 2 3 3 3 3 2 3 2 4 5 4 5 7 7 2 2 4 8 11 13 13 15 14 8 4 6 8 6 5 5 6 7 8 10 13 16 17 19 20 20 20 20 21 22 23 25 27 28 29 30 30 33 34 33 32 31 30 30 29 27 28 30 30 29 30 30 30 29 29 29 28 27 26 25 25 26 26 28 29 30 30 31 32 32 32 32 33 32 30 28 25 22 22 22 21
3 5 5 5 4 4 3 1 1 0 5 6 7 9 7 7 3 4 2 5 9 11 11 13 11 4 3 6 6 4 3 4 5 6 6 9 11 14 15 16 18 20 20 20 20 22 22 24 29 32 30 30 31 32 33 32 32 32 31 32 30 27 27 29 29 29 30 30 30 30 30 30 29 28 28 26 25 25 26 27 28 28 29 30 31 32 33 33 32 31 29 27 25 22 22 22 20
6 7 5 5 3 2 1 0 1 2 7 5 8 14 11 7 2 6 4 4 7 9 9 9 8 5 5 5 4 3 3 3 3 4 5 7 8 11 13 15 18 19 20 20 21 22 23 24 29 31 29 31 32 32 34 33 33 33 32 32 31 29 29 30 30 30 31 31 31 31 30 30 30 29 28 27 26 26 26 26 27 28 29 30 31 32 33 33 32 31 27 26 24 22 22 23 20
4 3 3 3 1 1 2 1 1 4 7 2 2 6 10 9 4 4 3 4 7 8 8 8 7 6 4 2 2 2 1 2 3 4 4 6 7 10 13 15 18 19 20 22 23 23 24 25 28 28 26 31 33 32 34 34 34 34 33 31 30 30 31 32 32 32 33 33 32 32 31 31 31 30 29 29 28 27 27 27 28 29 29 30 32 32 33 32 31 30 27 26 25 23 22 22 20
2 3 5 4 2 2 3 3 2 5 5 0 1 1 6 10 9 7 7 9 11 9 8 8 7 8 5 2 2 1 0 2 3 3 4 6 7 10 14 16 18 20 22 23 23 23 24 25 28 27 25 29 33 33 34 35 35 35 33 30 29 30 31 32 33 33 34 35 34 35 34 33 32 31 31 31 29 28 29 29 29 30 31 31 32 32 32 32 31 30 28 28 26 24 23 21 20
6 6 7 6 4 3 4 2 1 5 3 1 1 2 5 7 8 13 17 17 14 10 9 9 8 11 9 3 3 3 2 3 3 4 5 6 7 10 13 15 17 20 21 23 24 24 24 25 27 27 25 28 33 34 35 36 36 35 33 30 30 31 31 31 32 34 36 37 38 38 36 35 34 33 32 31 30 29 30 30 30 31 32 32 32 32 32 32 31 30 29 28 26 24 23 22 21
7 4 3 5 5 3 4 3 3 5 3 1 2 2 5 3 1 5 11 10 8 6 7 7 8 11 9 5 6 7 6 6 4 5 5 6 8 10 12 14 16 19 21 23 24 24 24 25 27 28 26 28 33 34 35 36 36 35 33 32 32 32 31 31 32 34 37 38 39 39 37 35 34 33 33 32 30 30 31 31 31 32 32 32 32 32 32 32 31 30 29 28 26 24 23 22 21
4 1 1 4 3 3 2 2 1 2 4 2 4 3 5 4 3 4 5 5 5 5 6 7 10 12 8 7 9 8 7 7 6 6 6 7 9 11 13 15 16 18 21 23 24 25 26 26 27 27 25 27 32 34 34 36 35 34 34 33 33 33 32 31 31 33 37 39 39 38 36 34 33 33 33 33 32 31 32 32 32 32 32 33 33 33 33 32 31 30 29 27 25 24 22 21 20
4 3 4 2 1 1 3 1 2 1 5 5 3 6 7 5 7 8 9 9 8 7 7 8 12 11 7 7 10 8 5 5 6 6 7 8 10 12 14 15 17 19 21 23 25 25 26 26 26 28 27 26 30 33 33 35 35 34 35 35 35 34 33 31 32 33 36 39 39 38 37 35 34 34 34 34 33 33 33 33 33 33 33 34 34 33 33 32 31 30 28 27 24 23 21 20 19
4 4 5 3 2 1 2 3 1 2 6 4 3 7 8 5 6 3 6 8 11 11 11 11 12 10 7 8 10 9 4 3 5 7 7 7 9 11 13 14 16 18 20 22 24 24 25 26 26 28 28 27 30 32 32 34 35 34 34 35 35 34 33 32 33 34 36 39 39 38 37 36 34 33 34 34 34 34 35 35 35 34 34 34 34 33 32 31 30 28 26 25 23 22 21 20 19
1 1 2 2 2 3 3 4 4 3 5 4 3 5 8 9 7 2 6 8 10 10 10 12 13 11 9 10 10 9 5 2 4 6 6 6 8 11 13 14 15 17 18 19 22 23 25 26 27 28 28 28 30 32 32 34 35 33 33 34 34 34 33 33 34 34 36 39 40 37 36 34 33 33 35 35 35 36 37 37 36 36 35 35 34 33 32 30 28 27 25 23 22 22 21 20 20
2 1 2 1 2 2 3 3 2 4 4 4 3 4 8 9 6 5 9 10 10 10 9 9 10 10 9 8 7 7 5 4 5 5 4 5 7 9 12 14 15 17 18 18 20 23 25 25 26 28 27 27 30 32 33 34 35 34 34 34 35 34 34 34 35 34 36 39 39 36 33 33 33 34 35 36 37 38 39 38 37 36 35 34 33 32 30 28 27 26 25 24 23 23 22 22 22
6 6 7 5 2 0 2 1 0 2 3 3 4 7 10 4 4 6 10 10 12 12 9 6 6 7 6 5 4 4 4 3 3 3 3 4 6 9 11 12 14 15 17 19 21 23 25 25 25 27 26 26 31 33 34 35 36 36 36 36 36 35 35 35 34 34 36 38 36 33 32 32 33 34 36 37 39 40 40 39 37 36 35 34 32 31 29 28 27 26 26 25 24 24 23 23 22
6 7 9 10 8 5 4 4 2 1 3 3 2 7 11 2 4 5 7 8 11 11 8 6 6 7 4 3 5 4 3 2 2 3 3 4 6 8 10 12 13 15 17 20 21 22 24 25 24 25 26 26 30 33 34 36 37 37 37 37 37 36 36 36 35 35 36 36 34 32 31 31 32 34 36 38 40 40 39 38 36 35 34 33 32 30 29 28 27 27 26 25 24 24 24 23 22
Wind_Direction
347 7 126 159 170 186 63 351 171 70 319 72 79 141 127 98 360 193 162 161 174 122 135 88 117 136 134 8 1 14 18 302 342 334 28 64 98 148 153 157 155 154 149 147 146 146 146 143 139 141 143 143 136 129 128 125 123 121 118 115 114 112 112 111 108 105 101 98 95 95 92 89 83 78 75 72 70 68 65 63 63 66 70 73 76 80 84 87 88 88 89 89 88 86 84 83 82
348 57 124 121 133 213 135 315 282 95 243 105 124 340 90 139 209 176 146 131 75 86 122 124 125 120 67 20 355 306 138 29 11 16 56 94 121 144 156 150 157 161 155 151 147 147 148 147 143 140 141 145 140 131 128 124 122 122 120 115 115 114 115 115 110 107 103 99 96 94 92 89 85 81 77 74 72 70 68 65 66 70 73 75 76 79 83 86 87 88 89 90 90 88 87 85 81
358 142 151 119 83 34 119 251 281 116 298 68 117 118 120 174 172 139 100 91 94 103 119 121 129 109 235 225 232 273 107 78 87 95 98 139 137 150 164 144 158 164 161 156 150 152 150 154 149 139 142 148 146 141 140 136 130 127 124 119 117 114 113 112 108 105 101 97 96 96 92 89 86 83 79 75 72 69 68 67 69 72 75 77 77 79 83 86 88 89 91 91 90 89 89 84 80
8 182 205 231 176 126 148 39 45 224 54 44 103 132 176 182 143 118 102 109 111 121 119 143 156 66 272 244 126 283 86 87 124 136 128 154 147 154 169 153 160 168 168 165 157 158 157 159 153 143 147 154 153 146 148 148 144 140 135 130 125 119 115 111 107 104 100 97 96 96 93 91 89 84 79 74 71 68 68 69 73 75 77 78 79 81 84 87 89 90 91 92 92 90 87 82 79
71 113 212 251 229 76 83 84 111 268 56 49 73 140 186 171 140 130 124 133 138 165 99 201 173 79 271 296 359 267 96 97 128 189 133 145 167 165 178 163 158 171 172 169 165 163 163 162 157 149 150 157 157 154 154 153 151 148 143 138 133 127 120 114 111 107 103 101 99 97 94 94 92 85 80 75 72 70 70 73 77 78 78 79 80 83 85 88 89 89 91 92 92 90 86 85 84
80 81 76 72 96 37 187 123 137 114 53 349 39 136 172 160 148 139 137 148 157 233 220 271 274 138 194 119 277 315 40 106 128 163 153 164 186 176 184 172 159 172 174 172 171 167 168 167 163 153 148 154 157 158 158 156 155 152 148 143 138 132 125 120 115 112 109 107 104 101 99 98 94 87 82 78 75 73 74 76 79 81 81 81 82 83 85 87 88 89 91 92 91 89 89 89 88
141 95 67 82 107 307 223 74 98 115 69 342 15 118 156 155 148 143 151 165 169 199 204 236 282 227 170 110 208 175 359 262 99 167 174 185 185 174 183 175 161 173 176 173 173 171 173 170 166 161 152 152 155 155 154 156 160 158 152 144 140 136 129 125 120 117 115 112 109 105 103 101 96 89 83 79 76 74 76 78 81 84 85 85 85 85 85 86 88 90 92 95 95 94 93 91 90
17 60 321 159 115 357 190 103 64 84 74 324 330 76 139 148 156 160 163 177 177 167 185 178 219 249 121 144 206 130 186 221 222 201 181 183 178 173 179 173 167 176 177 174 178 176 177 175 171 168 156 153 158 155 152 157 162 160 153 147 146 142 133 129 127 123 119 117 113 109 107 104 98 92 85 80 77 76 77 78 82 86 87 88 88 87 87 88 90 92 96 100 100 97 95 93 92
34 33 225 199 133 96 132 136 96 62 107 177 242 223 168 158 175 182 172 179 175 168 179 153 201 273 126 184 216 111 190 204 207 199 182 179 170 175 177 173 172 176 178 176 180 178 178 180 178 173 162 159 163 160 157 159 162 160 154 149 150 146 138 134 133 128 125 122 118 114 111 107 101 95 88 84 81 80 79 79 81 84 87 89 91 90 90 91 91 94 101 103 101 98 96 95 94
31 21 165 140 164 164 150 177 145 135 136 161 231 186 184 174 185 199 184 179 156 173 143 110 212 270 149 185 167 113 178 182 196 194 183 178 166 177 174 171 174 176 181 179 180 180 180 183 182 179 171 166 168 167 164 164 162 160 156 153 154 148 140 138 137 132 129 125 121 120 116 111 106 99 92 87 84 83 81 80 80 81 85 90 94 95 94 94 92 98 105 103 100 98 97 95 94
116 57 39 176 186 191 185 180 161 152 129 186 211 176 176 174 182 183 192 173 150 169 139 157 212 194 193 211 156 111 163 177 185 184 182 179 165 174 172 169 175 180 183 182 181 181 181 182 184 184 180 173 173 173 169 170 163 160 162 160 158 150 142 140 140 136 134 130 127 125 120 115 110 102 95 90 87 86 84 83 82 83 86 91 96 98 98 97 95 101 105 101 101 98 97 96 94
176 125 209 200 199 211 189 175 165 155 149 193 172 156 167 175 186 184 196 191 161 182 174 188 210 156 196 218 132 115 160 179 176 181 181 176 168 172 174 171 172 179 186 189 187 184 184 182 184 189 187 181 175 174 173 173 167 164 167 167 162 154 146 145 143 140 138 136 132 128 125 120 114 106 98 94 91 90 89 88 87 88 89 93 97 98 98 97 98 102 103 100 99 97 95 95 95
25 148 200 186 352 54 140 165 148 152 191 193 157 136 162 178 195 198 184 179 175 190 184 175 143 230 226 156 109 144 174 184 183 181 175 174 176 174 176 173 172 176 178 188 190 185 188 183 184 193 193 187 178 176 177 175 173 172 170 168 168 160 151 151 147 144 141 139 136 133 130 125 118 109 104 101 97 95 94 93 92 92 92 94 96 97 97 96 99 101 100 99 97 95 94 93 93
347 130 227 157 75 132 149 126 154 201 195 154 127 129 169 193 207 202 180 199 196 178 116 128 142 219 226 169 165 178 174 180 184 178 175 176 176 178 177 174 176 184 183 187 190 183 191 192 192 198 196 190 182 182 184 180 178 178 176 167 169 166 158 157 154 151 147 143 142 140 135 129 122 113 110 106 102 102 99 97 95 95 95 96 98 97 98 98 99 99 99 99 97 96 94 91 90
68 133 42 124 138 175 180 256 167 215 187 141 141 144 171 219 105 190 206 221 189 91 76 147 226 244 217 212 165 118 151 168 174 169 174 173 173 182 182 178 179 193 197 196 195 188 194 197 199 199 198 199 189 185 189 188 184 181 181 170 171 174 169 165 161 159 152 149 150 147 141 134 126 119 116 109 104 105 103 101 98 98 99 100 101 99 99 99 99 99 99 98 97 96 94 92 90
36 138 108 150 170 196 191 190 159 218 177 135 136 158 174 156 177 212 243 295 121 107 197 177 195 276 329 316 51 77 141 159 165 163 169 169 170 180 184 184 185 199 207 201 197 195 194 194 202 203 199 204 198 191 190 191 192 187 184 177 178 183 179 173 166 163 156 154 156 150 146 140 132 127 124 117 111 109 107 105 103 102 102 102 102 101 101 102 102 100 99 97 96 94 93 93 92
271 207 184 190 189 200 182 174 172 189 139 135 147 181 184 155 174 243 60 277 211 139 217 194 169 258 320 37 69 112 150 158 163 162 168 173 170 175 182 185 188 202 208 202 198 198 199 197 201 206 201 202 206 204 194 193 198 192 189 186 184 189 187 180 171 166 160 157 159 154 150 146 139 135 131 124 120 116 109 105 105 105 104 105 105 105 106 105 105 103 101 99 98 96 94 93 93
242 199 198 212 184 187 179 179 179 116 147 159 166 189 197 171 163 171 170 205 203 182 210 209 220 228 217 101 122 151 158 162 166 169 175 178 179 178 179 181 185 195 199 198 202 199 198 198 198 205 205 204 211 209 197 197 204 196 192 196 193 193 193 187 178 171 167 162 161 160 158 153 145 143 140 132 129 122 112 106 106 110 110 111 112 111 110 109 108 105 104 102 100 99 97 96 97
236 138 219 220 171 148 170 179 161 59 127 149 158 186 213 187 152 162 206 197 184 220 214 203 231 221 192 171 165 161 165 173 176 181 185 186 188 188 185 180 183 189 192 192 202 201 196 198 200 202 201 202 208 207 203 202 205 200 194 199 202 198 197 193 184 177 175 171 168 167 169 167 155 150 149 141 138 131 123 118 114 119 119 119 120 117 114 112 110 107 105 104 102 100 99 99 101
183 186 229 198 144 118 137 190 140 63 16 145 156 151 211 191 134 165 214 211 193 226 223 202 225 224 195 168 166 166 172 182 188 191 194 196 194 193 191 188 189 192 195 193 198 202 200 202 205 206 206 210 210 207 211 205 201 204 197 199 204 202 199 195 190 184 183 183 180 175 174 176 167 160 156 146 143 143 140 137 135 133 127 126 124 119 117 115 112 110 108 106 103 101 101 101 103
143 249 261 73 119 160 123 202 120 72 348 151 144 139 194 145 129 194 199 218 225 232 230 222 233 227 185 162 165 171 177 186 195 200 200 201 199 197 195 195 196 194 198 200 200 201 202 202 204 209 214 219 216 211 214 208 203 206 202 202 202 205 206 199 194 191 191 193 190 183 179 179 174 168 161 153 151 155 152 147 146 141 134 133 129 124 123 121 117 114 111 106 102 100 102 104 106
128 14 349 52 234 108 87 240 124 131 359 146 149 161 177 124 184 217 204 225 236 238 225 226 242 236 159 164 166 169 182 190 197 204 204 202 202 199 196 196 195 192 195 198 199 200 199 199 199 204 209 216 218 218 216 210 210 211 206 204 201 206 210 206 200 195 194 192 191 190 185 179 176 174 169 164 163 165 161 155 152 147 143 141 136 133 130 127 123 118 112 106 102 100 101 104 107
195 99 54 118 308 34 80 101 145 179 183 166 165 161 135 156 213 214 217 234 242 62 78 224 269 29 134 160 163 172 188 194 198 204 204 202 202 201 198 196 197 196 196 197 200 202 202 205 206 207 207 210 213 216 215 212 216 217 212 207 204 206 210 209 207 202 195 190 190 190 189 183 177 177 176 173 171 173 170 163 162 157 151 147 143 140 135 131 127 120 114 108 104 102 103 105 106
254 125 135 172 331 353 26 54 152 189 214 159 120 155 161 198 216 119 227 239 244 169 112 66 28 106 167 164 171 185 191 196 202 205 205 205 205 203 201 197 199 200 199 202 204 205 209 212 213 213 212 211 209 211 213 217 220 215 213 210 205 207 212 210 208 206 200 193 193 190 190 190 186 185 183 179 176 178 178 172 170 165 156 152 149 144 138 134 128 120 115 111 107 107 107 108 108
54 127 146 162 139 336 82 174 167 188 241 113 172 184 169 215 249 288 246 237 236 223 158 184 204 166 190 188 189 193 194 200 204 204 205 207 205 203 205 203 201 202 203 206 209 209 213 217 219 219 219 218 215 215 213 220 223 213 212 210 204 207 214 212 209 210 207 197 195 190 189 192 193 190 183 182 184 183 183 178 171 166 159 156 153 147 142 135 127 121 117 113 110 110 111 111 111
49 112 146 151 112 58 118 168 158 213 241 148 215 190 118 8 337 269 251 239 220 203 190 200 200 199 202 201 202 199 201 202 200 201 204 205 205 205 209 207 206 208 208 211 213 214 216 219 223 225 228 228 226 226 219 220 224 221 215 205 202 208 213 217 215 213 213 206 198 193 192 194 194 190 184 185 188 185 182 177 170 166 161 159 156 149 145 137 128 124 120 117 115 114 115 114 112
68 102 122 123 108 76 96 153 116 256 255 178 241 211 110 142 258 253 241 50 34 200 210 198 205 220 210 208 213 210 211 206 197 196 196 199 204 207 206 205 208 211 213 216 218 220 222 222 225 228 232 233 232 231 227 223 224 228 226 207 204 204 206 218 221 214 212 208 202 201 199 197 194 192 192 191 189 186 182 178 174 168 162 161 159 151 148 141 133 130 125 122 120 118 118 116 112
71 136 164 129 118 119 119 157 114 274 200 171 260 263 189 136 230 244 172 80 250 224 225 207 213 227 216 218 219 216 220 211 197 196 199 200 202 203 201 201 203 207 213 217 219 222 224 225 227 230 231 232 232 231 228 225 223 228 230 225 217 206 202 215 222 220 216 209 205 207 205 201 196 193 196 196 193 189 185 180 177 173 165 162 161 155 151 145 137 132 128 126 124 122 122 118 114
96 220 203 170 244 164 129 136 121 271 183 147 277 268 231 191 226 239 123 104 181 248 245 224 219 228 222 224 225 224 222 211 203 209 211 206 203 201 200 202 202 203 209 213 216 220 223 225 227 229 230 229 230 229 226 223 221 226 227 229 232 222 213 215 220 225 223 214 211 212 206 200 197 197 198 194 191 190 187 182 178 174 168 166 165 160 153 145 139 134 131 129 126 125 123 119 115
164 31 320 265 253 216 111 77 125 207 158 80 252 272 243 197 226 232 95 121 235 258 250 230 223 226 225 224 228 230 219 213 213 217 216 209 206 205 204 207 207 204 207 211 216 219 222 226 228 231 231 229 227 225 223 220 217 222 224 227 233 234 229 227 227 229 226 220 218 216 206 195 190 198 202 195 192 191 186 182 178 175 171 169 168 162 155 147 143 138 134 132 129 127 122 119 116
28 329 288 269 257 184 113 111 174 191 152 28 222 261 268 210 225 184 74 252 240 260 256 238 229 222 230 228 230 237 223 218 222 222 220 214 212 212 210 211 211 209 209 214 218 220 224 229 231 232 230 226 224 219 217 215 216 221 226 227 229 231 233 233 230 225 222 220 220 215 207 198 191 199 206 202 198 191 184 182 180 176 173 172 167 162 157 150 146 141 139 137 133 130 125 120 117
27 264 207 115 252 252 111 132 197 209 92 175 213 249 268 268 278 73 50 258 219 257 262 254 246 235 236 234 234 242 234 224 226 228 224 218 218 217 214 213 213 212 213 216 219 221 225 231 230 225 220 214 210 209 211 212 214 218 225 227 225 225 228 229 227 221 215 213 212 208 206 204 203 208 206 201 200 191 186 184 179 176 176 175 168 162 159 155 151 146 143 142 137 132 126 122 119
57 265 238 132 231 281 346 121 93 330 93 203 228 263 276 268 326 86 88 213 207 255 266 261 252 243 239 240 240 241 240 229 224 226 222 218 220 219 216 214 214 215 215 217 220 222 224 225 221 212 208 204 203 205 208 209 209 212 220 224 223 225 229 229 226 221 212 205 202 202 205 207 211 212 202 198 200 192 186 184 178 177 179 178 172 166 164 159 154 149 145 145 141 135 129 124 121
176 216 251 235 236 274 271 150 102 214 234 223 225 249 265 263 252 200 163 167 230 256 263 262 253 242 235 237 242 241 240 233 225 221 215 215 220 219 218 215 214 215 217 218 220 222 218 215 209 201 201 202 205 205 203 206 205 206 215 224 227 227 226 221 216 212 206 200 199 205 211 212 212 206 196 196 197 188 183 184 182 181 180 178 174 170 168 161 155 152 148 146 142 138 133 127 125
173 187 221 229 227 240 262 269 120 162 232 237 227 237 259 265 266 261 227 180 242 263 264 268 262 251 243 238 242 239 236 235 233 217 207 214 219 218 217 215 213 213 216 217 218 215 207 203 199 198 201 202 203 201 201 204 200 201 211 218 219 213 208 204 201 201 204 206 209 212 210 205 200 192 189 194 192 184 181 183 184 183 182 179 174 170 168 162 158 156 151 147 143 141 138 132 128
125 152 212 242 255 250 256 275 97 196 243 243 239 245 259 265 268 273 265 208 237 262 263 265 263 254 248 243 243 238 234 237 228 203 200 212 217 217 215 213 211 210 211 211 209 206 198 198 197 197 201 201 198 197 200 201 197 200 207 206 200 195 194 193 194 198 202 205 203 200 195 189 185 183 186 189 187 184 181 182 184 184 183 180 176 172 168 165 161 158 154 152 147 143 139 134 130
102 110 204 245 267 269 264 93 85 157 255 252 244 251 262 268 271 274 276 264 255 263 261 257 254 247 243 243 247 241 235 233 200 193 204 211 216 217 214 211 206 204 204 202 201 200 198 198 197 197 199 199 198 197 198 198 196 196 196 193 190 189 191 192 194 195 192 189 185 185 187 185 184 185 187 186 183 183 182 182 183 183 183 181 178 174 170 168 164 160 156 153 150 144 139 137 133
109 180 242 248 238 264 276 339 83 138 232 263 259 262 263 265 271 270 272 267 260 258 255 255 254 250 243 241 247 246 237 220 183 198 201 201 210 211 208 205 200 198 199 198 197 197 197 197 197 199 198 198 200 201 199 197 196 194 190 188 188 189 191 193 194 192 188 184 182 185 189 187 184 185 186 184 183 183 182 182 184 185 183 180 177 173 171 170 166 164 157 152 150 147 144 143 139
170 194 235 253 237 273 277 252 82 163 223 270 282 280 274 269 269 264 258 255 253 252 247 254 261 261 256 246 245 244 239 226 208 205 195 195 202 201 200 200 198 199 197 196 197 196 197 197 198 200 199 197 200 201 200 198 196 195 194 192 192 193 193 194 192 190 188 186 184 187 190 187 184 183 184 185 185 185 184 183 184 186 183 182 179 174 172 172 168 166 161 156 154 151 151 153 149
205 202 220 242 204 272 264 238 83 182 218 301 300 287 277 268 262 255 251 249 255 258 253 255 256 256 257 254 252 251 245 238 219 206 193 192 195 195 199 199 197 198 195 194 195 196 199 199 198 200 200 199 200 200 199 199 197 196 197 198 197 196 193 192 190 187 188 188 188 189 189 186 183 184 184 187 188 186 187 186 184 184 184 184 183 178 175 175 172 170 168 165 162 156 157 163 163
211 210 223 238 232 232 246 331 334 243 189 322 297 285 266 250 251 253 250 249 260 262 257 257 248 244 252 258 263 258 249 244 230 213 191 188 196 197 199 198 195 195 195 195 195 198 202 199 197 199 201 201 202 201 199 199 197 195 195 192 190 189 186 187 186 186 186 188 190 188 187 184 182 184 185 188 189 187 188 189 185 184 185 184 185 183 179 177 176 176 175 174 170 165 165 171 176
226 209 219 235 246 246 245 336 330 278 222 132 322 306 273 200 237 256 263 264 261 245 230 252 251 240 240 252 259 250 241 240 238 229 198 188 196 196 197 195 194 197 198 197 195 200 204 199 196 200 201 202 203 203 200 200 199 196 190 183 180 179 179 184 188 189 187 185 186 185 184 183 182 184 186 188 190 188 188 188 185 185 186 187 187 186 182 179 180 181 181 179 176 176 173 173 178
256 197 212 232 242 253 249 240 258 275 283 214 355 313 289 248 231 240 246 262 266 259 246 256 257 245 229 237 251 244 237 232 229 231 210 191 191 191 194 195 195 198 198 194 195 202 205 200 197 200 203 204 204 203 200 200 199 195 191 188 188 187 186 189 191 191 188 185 183 182 183 183 183 185 186 189 190 188 187 187 187 187 188 190 190 188 185 184 184 184 184 183 182 184 181 175 177
247 107 159 199 204 220 227 216 226 273 326 286 176 239 281 271 233 230 240 254 266 271 269 266 260 253 238 240 248 240 236 227 215 222 212 196 192 192 195 196 197 197 194 190 196 203 204 200 197 198 204 206 205 204 201 200 199 196 194 196 197 196 194 191 189 189 188 186 184 183 184 184 184 187 186 187 190 189 187 189 190 190 191 192 192 191 190 188 187 185 185 187 187 190 188 185 184
30 106 122 131 154 176 167 197 233 289 323 279 171 155 267 273 180 152 247 243 257 263 262 264 263 257 243 248 250 239 232 226 220 221 210 198 195 196 197 195 194 194 190 189 196 203 201 200 200 200 206 208 206 204 202 202 203 200 198 198 194 192 192 188 186 188 188 186 186 186 186 185 186 189 187 185 190 191 190 191 191 191 192 193 193 193 192 190 188 186 187 189 190 192 194 197 196
123 130 106 92 93 83 104 217 233 188 278 259 171 168 248 279 166 151 208 225 240 250 253 259 264 272 253 249 247 231 219 218 221 222 210 200 195 194 194 190 190 191 189 190 198 202 200 200 202 203 206 208 206 205 203 203 203 201 199 198 192 187 188 186 185 187 187 187 187 187 187 187 188 189 187 186 190 191 190 192 192 192 194 195 194 194 192 190 188 187 189 190 192 195 197 201 203
138 142 111 99 99 81 97 25 38 268 267 251 173 184 222 269 185 169 189 203 222 235 246 255 265 275 256 243 238 221 209 199 201 212 203 191 187 187 187 188 189 188 186 192 200 201 200 199 200 202 204 207 207 206 205 204 201 198 198 197 192 190 191 190 188 186 187 187 187 187 187 189 190 188 185 186 188 190 189 192 195 194 195 195 193 192 191 189 188 189 191 192 196 201 201 201 205
155 153 136 141 152 139 187 180 140 247 258 273 143 199 228 245 227 190 212 238 237 234 243 253 263 270 257 232 253 240 210 194 184 195 191 179 180 183 187 190 190 188 187 194 200 200 200 199 197 197 201 206 208 208 207 207 203 199 199 198 198 199 198 196 194 191 191 190 189 188 188 189 190 187 184 185 188 191 190 193 196 194 193 193 191 190 190 189 189 191 193 196 199 204 205 202 202
221 167 162 194 224 216 234 213 182 244 253 12 55 243 246 249 251 255 255 248 240 233 239 250 262 269 259 218 237 246 154 225 205 193 189 186 187 186 189 190 189 190 190 194 200 200 200 199 195 194 199 204 207 208 209 209 206 204 202 202 205 206 203 201 199 197 196 194 193 191 189 190 189 187 186 186 189 193 193 193 195 193 192 192 190 190 191 191 191 193 196 200 202 205 205 203 200
196 181 175 196 207 219 236 212 228 266 267 97 134 194 249 264 259 243 239 238 233 227 237 245 254 264 263 249 247 262 246 235 220 205 199 195 195 190 188 189 190 191 191 194 199 199 200 200 196 195 197 203 206 207 208 209 208 207 206 206 207 207 205 203 202 201 199 197 196 193 190 191 190 188 189 189 191 194 194 193 194 193 191 191 191 191 192 193 194 196 199 202 203 203 201 199 197
195 188 185 209 199 204 230 223 242 274 301 151 163 200 235 245 317 235 240 251 246 238 249 252 254 259 265 274 259 252 244 238 228 216 214 206 198 191 189 190 192 191 190 194 199 199 200 200 198 196 197 202 206 207 207 208 208 208 209 209 209 209 210 208 205 203 200 198 197 194 191 192 192 190 191 192 192 194 195 194 194 193 192 192 193 193 193 195 196 199 201 202 201 197 195 194 193
195 119 214 234 213 191 245 292 259 317 320 252 192 233 246 250 296 261 253 275 254 241 256 258 259 257 259 272 261 245 229 227 226 219 217 210 198 193 192 191 192 192 190 194 199 199 199 199 198 198 198 201 205 208 208 208 208 208 209 210 210 213 214 211 208 205 202 200 198 194 193 194 194 194 195 195 194 195 196 195 195 194 194 194 195 195 195 196 197 198 198 197 194 192 191 191 190
157 162 200 219 351 205 221 259 80 92 276 260 196 249 275 289 273 232 215 239 240 234 242 240 250 253 249 262 264 259 232 207 215 220 217 210 199 196 197 194 193 192 190 194 200 200 199 198 197 198 200 200 203 208 208 207 208 209 210 211 212 215 215 212 210 208 204 200 198 195 195 197 197 198 199 198 196 196 196 196 195 194 195 195 195 195 195 195 195 195 193 192 190 188 187 186 185
133 184 192 139 30 304 233 243 214 180 255 266 208 254 274 271 265 209 168 225 240 236 236 237 245 248 242 245 252 261 255 175 207 221 216 212 202 199 200 198 197 195 193 195 199 201 201 198 197 197 198 199 200 205 207 206 209 210 210 212 213 215 216 213 212 212 206 200 199 197 198 201 201 201 201 199 198 196 195 196 196 195 195 194 194 193 193 193 192 191 190 190 189 187 185 184 186
66 232 177 146 222 209 180 218 242 221 244 266 233 261 268 236 233 207 161 198 230 233 229 234 241 239 237 242 244 255 261 218 223 222 214 213 204 202 200 197 198 197 196 196 197 202 202 201 200 198 200 202 200 202 206 207 209 209 209 213 214 214 214 212 213 214 207 200 200 201 203 206 205 203 201 199 199 197 195 195 195 195 194 192 192 192 191 191 190 190 189 188 187 186 186 187 188
7 275 186 256 281 225 178 177 236 231 234 274 280 282 266 233 204 196 195 192 204 218 217 224 237 234 232 240 240 241 238 222 223 211 202 211 205 203 201 197 196 195 194 196 199 204 203 201 201 200 201 203 201 202 206 207 209 210 211 213 214 213 212 212 214 214 206 200 201 204 208 210 209 206 202 199 199 197 195 195 195 194 193 191 191 190 190 190 189 189 189 188 187 187 189 189 189
183 195 188 190 180 298 250 185 214 255 234 257 276 275 268 241 138 177 195 189 199 214 216 209 235 243 235 241 249 244 228 206 201 192 191 202 202 202 200 197 196 193 193 198 202 205 203 202 202 200 200 200 199 202 206 207 209 211 211 213 214 213 212 212 214 212 205 201 203 207 211 213 212 209 204 200 198 197 196 196 194 193 192 191 191 189 189 189 189 189 189 189 188 188 190 191 189
184 196 193 194 175 154 202 203 182 241 243 227 231 271 271 257 121 177 185 186 201 210 209 197 218 235 224 224 238 247 255 229 175 182 190 194 197 196 195 194 192 192 195 200 202 203 203 205 205 201 200 200 199 201 205 207 209 210 212 213 214 213 212 213 213 209 204 204 206 209 212 214 213 209 204 199 197 196 196 195 194 193 192 191 191 190 190 190 190 191 190 190 191 191 192 192 191